Flag for Poland Weather past 2 weeks in Kielce, Poland

Now
62 °F

Fog.


Feels Like: 62 °F
Forecast: 49 / 68 °F
Wind: 1 mph from Southeast

Location: Kielce

Current Time: Sep 20, 2014 at 4:33:45 PM

Latest Report: Sep 20, 2014 at 3:00 PM


Visibility: 3 mi

Pressure: 29.96 "Hg

Humidity: 89%

Dew point: 59 °F

Location of KielceLocation

Historic Weather in Kielce — Graph

°F

Kielce temperature yesterday

Maximum temperature yesterday: 72 °F (at 4:00 PM)
Minimum temperature yesterday: 49 °F (at 5:00 AM)
Average temperature yesterday: 63 °F

Past Weeks' High & Low Weather Summary

 TemperatureHumidityPressure
High78 °F (Sep 8, 3:00 PM)100% (Sep 8, 11:00 PM)30.21 "Hg (Sep 8, 11:00 PM)
Low43 °F (Sep 18, 6:00 AM)41% (Sep 18, 4:00 PM)29.92 "Hg (Sep 6, 6:00 PM)
Average61 °F78%30.05 "Hg
* Reported Sep 5 3:00 PM — Sep 20 3:00 PM, Kielce, Weather by CustomWeather, © 2014

Note: Actual official high and low records may vary slightly from our data, if they occured in-between our weather recording intervals... More about our weather records

Advertising

Kielce weather history for previous 24 hours

 ConditionsComfort  
Time TempWeatherWind HumidityBarometerVisibility
3:00 PM
Sep 20
62 °FFog.1 mph89%29.96 "Hg3 mi
2:00 PM61 °FFog.1 mph91%29.97 "Hg2 mi
1:00 PM61 °FFog.2 mph93%29.97 "Hg2 mi
12:00 PM59 °FLow clouds.1 mph96%29.98 "Hg2 mi
11:00 AM57 °FLight rain. Overcast.No wind99%29.98 "Hg2 mi
10:00 AM55 °FRain showers. Overcast.3 mph99%29.99 "Hg1 mi
9:00 AM54 °FLight rain. Overcast.2 mph99%30.00 "Hg2 mi
8:00 AM53 °FRain showers. Overcast.2 mph98%30.00 "Hg2 mi
7:00 AM53 °FSprinkles. Overcast.1 mph94%30.01 "Hg2 mi
6:00 AM52 °FFog.1 mph93%30.01 "Hg5 mi
5:00 AM51 °FOvercast.1 mph95%30.02 "Hg6 mi
4:00 AM51 °FOvercast.No wind94%30.02 "Hg6 mi
3:00 AM51 °FOvercast.1 mph93%30.03 "Hg6 mi
2:00 AM51 °FPassing clouds.1 mph91%30.03 "Hg6 mi
1:00 AM53 °FPassing clouds.1 mph86%30.04 "Hg6 mi
12:00 AM56 °FPassing clouds.1 mph81%30.03 "Hg9 mi
10:00 PM
Sep 19
59 °FOvercast.1 mph75%30.04 "Hg12 mi
9:00 PM61 °FOvercast.1 mph72%30.05 "Hg12 mi
8:00 PM62 °FOvercast.1 mph74%30.04 "Hg12 mi
7:00 PM64 °FOvercast.1 mph70%30.03 "Hg12 mi
6:00 PM68 °FPartly sunny.2 mph56%30.03 "Hg15 mi
5:00 PM71 °FPartly sunny.3 mph47%30.03 "Hg15 mi
4:00 PM72 °FPartly sunny.3 mph50%30.04 "Hg14 mi
Weather by CustomWeather, © 2014

See weather overviewHow to use our weather pages